GW6015 Weather Reports


time (UTC)temp
C
wind
direction
speed
KPH
gust
KPH
rain 1hr
cm
rain 24hr
cm
rain mn
cm
humidity
%
barometer
mb
20260502214602 10 200 3.2 8.0 0.00 0.03 0.03 84 1010.9
20260502213058 10 0 0.0 6.4 0.00 0.03 0.03 83 1010.9
20260502211556 11 0 0.0 4.8 0.00 0.03 0.03 83 1010.8
20260502210057 11 0 0.0 4.8 0.00 0.03 0.03 83 1010.7
20260502204610 11 204 0.0 4.8 0.00 0.03 0.03 82 1010.7
20260502203115 11 0 0.0 8.0 0.00 0.03 0.03 83 1010.8
20260502201557 10 208 4.8 9.7 0.00 0.03 0.03 87 1011.2
20260502200059 10 0 0.0 9.7 0.00 0.03 0.03 87 1011.1
20260502194601 10 0 0.0 4.8 0.00 0.03 0.03 86 1011.2
20260502193057 10 0 0.0 3.2 0.00 0.03 0.03 87 1011.4
20260502191559 10 0 0.0 6.4 0.00 0.03 0.03 86 1010.9
20260502190058 10 0 0.0 3.2 0.00 0.03 0.03 87 1011.8
20260502184603 10 0 0.0 6.4 0.00 0.03 0.03 87 1011.8
20260502183059 10 153 1.6 6.4 0.00 0.03 0.03 88 1011.8
20260502181617 10 0 0.0 6.4 0.00 0.03 0.03 88 1012.0
20260502170110 10 0 0.0 0.0 0.00 0.03 0.03 88 1012.1
20260502163056 9 0 0.0 4.8 0.00 0.03 0.03 88 1012.4
20260502161600 9 0 0.0 4.8 0.00 0.03 0.03 88 1012.2
20260502151606 9 207 0.0 4.8 0.03 0.03 0.03 88 1012.8
20260502140105 10 0 0.0 3.2 0.00 0.00 0.00 83 1012.5
20260502123057 10 0 0.0 4.8 0.00 0.00 0.00 84 1012.3
20260502121558 10 235 0.0 9.7 0.00 0.00 0.00 83 1013.4
20260502120106 10 207 3.2 6.4 0.00 0.00 0.00 83 1013.2
20260502114559 9 223 1.6 4.8 0.00 0.00 0.00 83 1012.9
20260502113100 9 0 0.0 3.2 0.00 0.00 0.00 83 1012.9
20260502111558 9 0 0.0 4.8 0.00 0.00 0.00 83 1012.2
20260502104557 8 0 0.0 0.0 0.00 0.00 0.00 84 1012.7
20260502103101 8 0 0.0 4.8 0.00 0.00 0.00 83 1012.7
20260502101556 8 0 0.0 4.8 0.00 0.00 0.00 84 1012.4
20260502080108 8 234 0.0 6.4 0.00 0.00 0.00 81 1012.3
20260502070101 8 0 0.0 4.8 0.00 0.00 0.00 79 1012.4
20260502064603 8 0 0.0 4.8 0.00 0.00 0.00 77 1012.6
20260502063058 8 0 0.0 0.0 0.00 0.00 0.00 77 1012.5
20260502061558 8 0 0.0 3.2 0.00 0.00 0.00 77 1012.8
20260502060058 8 0 0.0 0.0 0.00 0.00 0.00 77 1012.8
20260502054559 8 0 0.0 3.2 0.00 0.00 0.00 74 1012.8
20260502053056 9 206 1.6 4.8 0.00 0.00 0.00 73 1013.0
20260502051556 9 0 1.6 6.4 0.00 0.00 0.00 73 1013.2
20260502050057 9 192 1.6 6.4 0.00 0.00 0.00 72 1013.3
20260502044557 9 0 1.6 4.8 0.00 0.00 0.00 72 1013.4
20260502043100 9 0 0.0 6.4 0.00 0.00 0.00 72 1013.4
20260502041556 9 230 1.6 8.0 0.00 0.00 0.00 72 1013.2
20260502040107 9 211 0.0 6.4 0.00 0.00 0.00 72 1013.2
20260502034558 9 218 0.0 4.8 0.00 0.00 0.00 71 1013.3
20260502033057 10 0 0.0 8.0 0.00 0.00 0.00 70 1013.4
20260502031619 10 0 0.0 4.8 0.00 0.00 0.00 70 1013.5
20260502030100 10 238 0.0 8.0 0.00 0.00 0.00 69 1013.5
20260502024556 10 0 0.0 6.4 0.00 0.00 0.00 69 1013.5
20260502023059 10 0 1.6 6.4 0.00 0.00 0.00 69 1013.3
20260502021556 10 203 1.6 6.4 0.00 0.00 0.00 69 1013.2
20260502020111 10 219 0.0 9.7 0.00 0.00 0.00 69 1013.2
20260502014559 10 234 0.0 12.9 0.00 0.00 0.00 68 1013.2
20260502013106 10 207 3.2 14.5 0.00 0.00 0.00 68 1013.2
20260502011615 10 216 4.8 14.5 0.00 0.00 0.00 67 1013.1
20260502010055 10 242 3.2 12.9 0.00 0.00 0.00 67 1013.0
20260502004604 10 185 3.2 11.3 0.00 0.00 0.00 66 1012.7
20260502003132 11 226 3.2 16.1 0.00 0.00 0.00 65 1012.4
20260502001632 11 250 3.2 11.3 0.00 0.00 0.00 64 1012.2
20260502000059 11 191 3.2 12.9 0.00 0.00 0.00 62 1011.8
20260501234600 12 190 3.2 11.3 0.00 0.00 0.00 58 1011.6
20260501233058 12 243 3.2 12.9 0.00 0.00 0.00 53 1011.4
20260501231558 13 164 3.2 9.7 0.00 0.00 0.00 44 1011.2
20260501230056 13 284 3.2 14.5 0.00 0.00 0.00 41 1010.9
20260501224603 13 209 4.8 17.7 0.00 0.00 0.00 42 1010.9
20260501223058 14 230 6.4 14.5 0.00 0.00 0.00 41 1010.7
20260501221556 14 227 4.8 16.1 0.00 0.00 0.00 41 1010.8
20260501220058 14 193 4.8 16.1 0.00 0.00 0.00 41 1010.8